This is the latest recevied weather packets stored in our database for station/object KE5BM-13. If no packets are shown the sender has not sent any weather packets the latest 10 day(s).
| Time | Temp. | Humidity | Pressure | Rain* | Wind** | Luminosity | Snow |
|---|---|---|---|---|---|---|---|
| 1777407714 | 10° C | 74% | 1019.2 hPa | 0 mm | - | - | - |
| 1777407413 | 9.44° C | 74% | 1019.3 hPa | 0 mm | - | - | - |
| 1777407111 | 10° C | 74% | 1019.3 hPa | 0 mm | - | - | - |
| 1777406813 | 10° C | 74% | 1019.3 hPa | 0 mm | - | - | - |
| 1777406511 | 10° C | 74% | 1019.4 hPa | 0 mm | - | - | - |
| 1777406209 | 10° C | 73% | 1019.5 hPa | 0 mm | - | - | - |
| 1777405911 | 10° C | 73% | 1019.6 hPa | 0 mm | - | - | - |
| 1777405610 | 10° C | 73% | 1019.6 hPa | 0 mm | - | - | - |
| 1777405311 | 9.44° C | 74% | 1019.8 hPa | 0 mm | - | - | - |
| 1777405012 | 10° C | 72% | 1019.7 hPa | 0 mm | - | - | - |
| 1777404706 | 10° C | 72% | 1019.7 hPa | 0 mm | - | - | - |
| 1777404405 | 10° C | 73% | 1019.7 hPa | 0 mm | - | - | - |
| 1777404106 | 10° C | 72% | 1019.8 hPa | 0 mm | - | - | - |
| 1777403806 | 10.56° C | 72% | 1019.8 hPa | 0 mm | - | - | - |
| 1777403507 | 10.56° C | 72% | 1019.7 hPa | 0 mm | - | - | - |
| 1777403208 | 10.56° C | 69% | 1020 hPa | 0 mm | - | - | - |
| 1777402906 | 10° C | 69% | 1019.9 hPa | 0 mm | - | - | - |
| 1777402605 | 10.56° C | 67% | 1019.9 hPa | 0 mm | - | - | - |
| 1777402307 | 10.56° C | 66% | 1020 hPa | 0 mm | - | - | - |
| 1777402003 | 10.56° C | 69% | 1020 hPa | 0 mm | - | - | - |
| 1777401699 | 10.56° C | 66% | 1020.2 hPa | 0 mm | - | - | - |
| 1777401400 | 10.56° C | 66% | 1020.1 hPa | 0 mm | - | - | - |
| 1777401099 | 11.11° C | 63% | 1020.1 hPa | 0 mm | - | - | - |
| 1777400803 | 10.56° C | 66% | 1020.1 hPa | 0 mm | - | - | - |
| 1777400497 | 10.56° C | 65% | 1020 hPa | 0 mm | - | - | - |
* Rain latest hour (hover to see other rain measurements)
** Current wind speed in m/s (hover to see current wind gust speed)